| time (UTC) | temp F | wind direction | speed MPH | gust MPH | rain 1hr in | rain 24hr in | rain mn in | humidity % | barometer mb |
| 20260506165025 | 78 | 49 | 3.0 | 8.0 | 0.00 | 0.00 | 0.00 | 87 | 1010.6 |
| 20260506164504 | 78 | 33 | 4.0 | 8.0 | 0.00 | 0.00 | 0.00 | 87 | 1010.7 |
| 20260506164004 | 79 | 36 | 3.0 | 7.0 | 0.00 | 0.00 | 0.00 | 87 | 1010.6 |
| 20260506163504 | 78 | 43 | 4.0 | 9.0 | 0.00 | 0.00 | 0.00 | 87 | 1010.7 |
| 20260506163005 | 78 | 39 | 3.0 | 9.0 | 0.00 | 0.00 | 0.00 | 88 | 1010.7 |
| 20260506162504 | 78 | 52 | 4.0 | 8.0 | 0.00 | 0.00 | 0.00 | 88 | 1010.7 |
| 20260506162025 | 78 | 60 | 3.0 | 8.0 | 0.00 | 0.00 | 0.00 | 88 | 1010.6 |
| 20260506161504 | 78 | 53 | 2.0 | 5.0 | 0.00 | 0.00 | 0.00 | 89 | 1010.7 |
| 20260506161004 | 78 | 57 | 2.0 | 4.0 | 0.00 | 0.00 | 0.00 | 89 | 1010.7 |
| 20260506160504 | 78 | 71 | 3.0 | 7.0 | 0.00 | 0.00 | 0.00 | 89 | 1010.5 |
| 20260506160004 | 77 | 75 | 3.0 | 7.0 | 0.00 | 0.00 | 0.00 | 89 | 1010.4 |
| 20260506155504 | 77 | 66 | 3.0 | 6.0 | 0.00 | 0.00 | 0.00 | 89 | 1010.4 |
| 20260506155025 | 77 | 69 | 3.0 | 6.0 | 0.00 | 0.00 | 0.00 | 89 | 1010.3 |
| 20260506154504 | 77 | 77 | 3.0 | 6.0 | 0.00 | 0.00 | 0.00 | 90 | 1010.0 |
| 20260506154026 | 77 | 77 | 3.0 | 5.0 | 0.00 | 0.00 | 0.00 | 90 | 1009.9 |
| 20260506153504 | 77 | 77 | 3.0 | 5.0 | 0.00 | 0.00 | 0.00 | 90 | 1009.9 |
| 20260506153004 | 77 | 76 | 2.0 | 4.0 | 0.00 | 0.00 | 0.00 | 90 | 1009.8 |
| 20260506152504 | 77 | 73 | 2.0 | 6.0 | 0.00 | 0.00 | 0.00 | 90 | 1009.8 |
| 20260506152025 | 77 | 69 | 3.0 | 6.0 | 0.00 | 0.00 | 0.00 | 90 | 1009.8 |
| 20260506151504 | 77 | 66 | 3.0 | 5.0 | 0.00 | 0.00 | 0.00 | 91 | 1009.8 |
| 20260506151005 | 77 | 71 | 2.0 | 4.0 | 0.00 | 0.00 | 0.00 | 91 | 1009.7 |
| 20260506150504 | 76 | 74 | 2.0 | 4.0 | 0.00 | 0.00 | 0.00 | 91 | 1009.6 |
| 20260506150005 | 76 | 70 | 2.0 | 4.0 | 0.00 | 0.00 | 0.00 | 91 | 1009.6 |
| 20260506145504 | 76 | 73 | 2.0 | 4.0 | 0.00 | 0.00 | 0.00 | 92 | 1009.6 |
| 20260506145026 | 76 | 82 | 2.0 | 4.0 | 0.00 | 0.00 | 0.00 | 92 | 1009.7 |
| 20260506144504 | 76 | 79 | 1.0 | 4.0 | 0.00 | 0.00 | 0.00 | 93 | 1009.6 |
| 20260506144005 | 76 | 68 | 1.0 | 2.0 | 0.00 | 0.00 | 0.00 | 93 | 1009.5 |
| 20260506143504 | 75 | 68 | 0.0 | 2.0 | 0.00 | 0.00 | 0.00 | 93 | 1009.4 |
| 20260506143004 | 75 | 72 | 1.0 | 4.0 | 0.00 | 0.00 | 0.00 | 93 | 1009.3 |
| 20260506142505 | 75 | 77 | 2.0 | 4.0 | 0.00 | 0.00 | 0.00 | 93 | 1009.2 |
| 20260506142004 | 75 | 61 | 1.0 | 3.0 | 0.00 | 0.00 | 0.00 | 93 | 1009.3 |
| 20260506141504 | 75 | 34 | 1.0 | 3.0 | 0.00 | 0.00 | 0.00 | 93 | 1009.2 |
| 20260506141005 | 75 | 56 | 1.0 | 3.0 | 0.00 | 0.00 | 0.00 | 93 | 1009.0 |
| 20260506140504 | 75 | 56 | 1.0 | 4.0 | 0.00 | 0.00 | 0.00 | 93 | 1009.1 |
| 20260506140005 | 75 | 52 | 1.0 | 4.0 | 0.00 | 0.00 | 0.00 | 93 | 1008.8 |
| 20260506135525 | 75 | 68 | 1.0 | 2.0 | 0.00 | 0.00 | 0.00 | 93 | 1008.8 |
| 20260506135004 | 75 | 69 | 1.0 | 3.0 | 0.00 | 0.00 | 0.00 | 93 | 1008.5 |
| 20260506134504 | 75 | 73 | 2.0 | 4.0 | 0.00 | 0.00 | 0.00 | 93 | 1008.5 |
| 20260506134004 | 75 | 68 | 2.0 | 4.0 | 0.00 | 0.00 | 0.00 | 93 | 1008.4 |
| 20260506133504 | 75 | 68 | 1.0 | 3.0 | 0.00 | 0.00 | 0.00 | 93 | 1008.3 |
| 20260506133004 | 75 | 77 | 1.0 | 3.0 | 0.00 | 0.00 | 0.00 | 94 | 1008.5 |
| 20260506132525 | 74 | 76 | 2.0 | 3.0 | 0.00 | 0.00 | 0.00 | 94 | 1008.5 |
| 20260506132005 | 74 | 76 | 2.0 | 3.0 | 0.00 | 0.00 | 0.00 | 94 | 1008.5 |
| 20260506131504 | 74 | 84 | 2.0 | 4.0 | 0.00 | 0.00 | 0.00 | 94 | 1008.3 |
| 20260506131025 | 74 | 92 | 2.0 | 6.0 | 0.00 | 0.00 | 0.00 | 94 | 1008.3 |
| 20260506130525 | 74 | 89 | 2.0 | 6.0 | 0.00 | 0.00 | 0.00 | 94 | 1008.3 |
| 20260506130005 | 74 | 107 | 1.0 | 4.0 | 0.00 | 0.00 | 0.00 | 94 | 1008.5 |
| 20260506125504 | 74 | 161 | 0.0 | 4.0 | 0.00 | 0.00 | 0.00 | 94 | 1008.5 |
| 20260506125004 | 74 | 161 | 0.0 | 1.0 | 0.00 | 0.00 | 0.00 | 94 | 1008.5 |
| 20260506124526 | 74 | 161 | 0.0 | 1.0 | 0.00 | 0.00 | 0.00 | 94 | 1008.5 |
| 20260506124006 | 74 | 155 | 1.0 | 4.0 | 0.00 | 0.00 | 0.00 | 94 | 1008.5 |
| 20260506123504 | 74 | 151 | 2.0 | 4.0 | 0.00 | 0.00 | 0.00 | 94 | 1008.5 |
| 20260506123004 | 74 | 150 | 1.0 | 4.0 | 0.00 | 0.00 | 0.00 | 94 | 1008.3 |
| 20260506122525 | 74 | 161 | 0.0 | 2.0 | 0.00 | 0.00 | 0.00 | 94 | 1008.1 |
| 20260506122005 | 74 | 161 | 0.0 | 1.0 | 0.00 | 0.00 | 0.00 | 94 | 1008.1 |
| 20260506121525 | 73 | 161 | 0.0 | 2.0 | 0.00 | 0.00 | 0.00 | 94 | 1008.1 |
| 20260506121004 | 73 | 161 | 0.0 | 2.0 | 0.00 | 0.00 | 0.00 | 94 | 1008.2 |
| 20260506120504 | 73 | 161 | 0.0 | 2.0 | 0.00 | 0.00 | 0.00 | 94 | 1008.2 |
| 20260506120005 | 73 | 161 | 0.0 | 2.0 | 0.00 | 0.00 | 0.00 | 94 | 1008.1 |
| 20260506115504 | 73 | 161 | 0.0 | 2.0 | 0.00 | 0.00 | 0.00 | 93 | 1008.1 |
| 20260506115025 | 73 | 161 | 0.0 | 2.0 | 0.00 | 0.00 | 0.00 | 93 | 1008.2 |
| 20260506114504 | 73 | 0 | 0.0 | 0.0 | 0.00 | 0.00 | 0.00 | 93 | 1008.3 |
| 20260506114005 | 73 | 0 | 0.0 | 0.0 | 0.00 | 0.00 | 0.00 | 93 | 1008.2 |
| 20260506113504 | 73 | 161 | 0.0 | 1.0 | 0.00 | 0.00 | 0.00 | 93 | 1008.1 |
| 20260506113025 | 73 | 161 | 0.0 | 1.0 | 0.00 | 0.00 | 0.00 | 93 | 1008.1 |
| 20260506112504 | 73 | 161 | 0.0 | 1.0 | 0.00 | 0.00 | 0.00 | 93 | 1008.2 |
| 20260506112004 | 74 | 161 | 0.0 | 1.0 | 0.00 | 0.00 | 0.00 | 93 | 1008.1 |
| 20260506111504 | 74 | 161 | 0.0 | 2.0 | 0.00 | 0.00 | 0.00 | 93 | 1008.0 |
| 20260506111004 | 74 | 161 | 1.0 | 2.0 | 0.00 | 0.00 | 0.00 | 93 | 1008.0 |
| 20260506110504 | 74 | 160 | 1.0 | 4.0 | 0.00 | 0.00 | 0.00 | 93 | 1008.0 |
| 20260506110004 | 74 | 132 | 1.0 | 4.0 | 0.00 | 0.00 | 0.00 | 93 | 1008.0 |
| 20260506105504 | 74 | 81 | 0.0 | 2.0 | 0.00 | 0.00 | 0.00 | 92 | 1008.0 |
| 20260506105004 | 74 | 144 | 0.0 | 2.0 | 0.00 | 0.00 | 0.00 | 92 | 1008.0 |
| 20260506104525 | 74 | 176 | 1.0 | 2.0 | 0.00 | 0.00 | 0.00 | 92 | 1007.9 |
| 20260506104004 | 74 | 176 | 1.0 | 2.0 | 0.00 | 0.00 | 0.00 | 92 | 1007.8 |
| 20260506103504 | 74 | 184 | 1.0 | 4.0 | 0.00 | 0.00 | 0.00 | 92 | 1007.9 |
| 20260506103025 | 74 | 188 | 1.0 | 4.0 | 0.00 | 0.00 | 0.00 | 92 | 1007.8 |
| 20260506102504 | 74 | 194 | 1.0 | 3.0 | 0.00 | 0.00 | 0.00 | 92 | 1007.7 |
| 20260506102004 | 74 | 187 | 2.0 | 6.0 | 0.00 | 0.00 | 0.00 | 91 | 1007.8 |
| 20260506101504 | 74 | 177 | 3.0 | 6.0 | 0.00 | 0.00 | 0.00 | 91 | 1007.8 |
| 20260506101025 | 75 | 173 | 3.0 | 6.0 | 0.00 | 0.00 | 0.00 | 91 | 1007.8 |
| 20260506100504 | 75 | 177 | 4.0 | 9.0 | 0.00 | 0.00 | 0.00 | 91 | 1007.7 |
| 20260506100004 | 75 | 181 | 4.0 | 9.0 | 0.00 | 0.00 | 0.00 | 91 | 1007.6 |
| 20260506095504 | 75 | 183 | 4.0 | 8.0 | 0.00 | 0.00 | 0.00 | 91 | 1007.7 |
| 20260506095004 | 75 | 177 | 3.0 | 7.0 | 0.00 | 0.00 | 0.00 | 91 | 1007.7 |
| 20260506094503 | 75 | 171 | 3.0 | 8.0 | 0.00 | 0.00 | 0.00 | 91 | 1007.6 |
| 20260506094004 | 75 | 171 | 4.0 | 8.0 | 0.00 | 0.00 | 0.00 | 91 | 1007.6 |
| 20260506093504 | 75 | 174 | 4.0 | 7.0 | 0.00 | 0.00 | 0.00 | 91 | 1007.6 |
| 20260506093004 | 75 | 173 | 4.0 | 7.0 | 0.00 | 0.00 | 0.00 | 91 | 1007.6 |
| 20260506092504 | 75 | 169 | 3.0 | 7.0 | 0.00 | 0.00 | 0.00 | 90 | 1007.6 |
| 20260506092004 | 75 | 169 | 4.0 | 8.0 | 0.00 | 0.00 | 0.00 | 90 | 1007.7 |
| 20260506091525 | 75 | 167 | 4.0 | 8.0 | 0.00 | 0.00 | 0.00 | 90 | 1007.7 |
| 20260506091025 | 75 | 172 | 4.0 | 7.0 | 0.00 | 0.00 | 0.00 | 90 | 1007.8 |
| 20260506090504 | 75 | 177 | 3.0 | 7.0 | 0.00 | 0.00 | 0.00 | 90 | 1007.8 |
| 20260506090004 | 75 | 170 | 3.0 | 7.0 | 0.00 | 0.00 | 0.00 | 90 | 1007.7 |
| 20260506085504 | 75 | 169 | 3.0 | 7.0 | 0.00 | 0.00 | 0.00 | 90 | 1007.8 |
| 20260506085004 | 75 | 173 | 3.0 | 6.0 | 0.00 | 0.00 | 0.00 | 90 | 1007.7 |
| 20260506084525 | 75 | 174 | 3.0 | 6.0 | 0.00 | 0.00 | 0.00 | 89 | 1007.8 |
| 20260506084004 | 76 | 169 | 3.0 | 6.0 | 0.00 | 0.00 | 0.00 | 89 | 1007.8 |
| 20260506083525 | 76 | 165 | 3.0 | 9.0 | 0.00 | 0.00 | 0.00 | 89 | 1007.8 |
| 20260506083025 | 76 | 165 | 3.0 | 9.0 | 0.00 | 0.00 | 0.00 | 89 | 1007.6 |
| 20260506082525 | 76 | 167 | 3.0 | 6.0 | 0.00 | 0.00 | 0.00 | 89 | 1007.7 |
| 20260506082004 | 76 | 171 | 3.0 | 6.0 | 0.00 | 0.00 | 0.00 | 89 | 1007.7 |
| 20260506081505 | 76 | 177 | 4.0 | 7.0 | 0.00 | 0.00 | 0.00 | 89 | 1007.7 |
| 20260506081004 | 76 | 177 | 4.0 | 9.0 | 0.00 | 0.00 | 0.00 | 89 | 1007.6 |
| 20260506080504 | 76 | 178 | 4.0 | 9.0 | 0.00 | 0.00 | 0.00 | 89 | 1007.5 |
| 20260506073504 | 76 | 169 | 4.0 | 9.0 | 0.00 | 0.00 | 0.00 | 87 | 1008.0 |
| 20260506073004 | 76 | 166 | 3.0 | 7.0 | 0.00 | 0.00 | 0.00 | 88 | 1008.0 |
| 20260506072504 | 76 | 167 | 4.0 | 8.0 | 0.00 | 0.00 | 0.00 | 88 | 1007.9 |
| 20260506072004 | 76 | 163 | 4.0 | 8.0 | 0.00 | 0.00 | 0.00 | 87 | 1008.1 |
| 20260506071504 | 76 | 164 | 5.0 | 8.0 | 0.00 | 0.00 | 0.00 | 88 | 1008.1 |
| 20260506071004 | 76 | 166 | 4.0 | 8.0 | 0.00 | 0.00 | 0.00 | 88 | 1008.1 |
| 20260506070504 | 76 | 164 | 4.0 | 8.0 | 0.00 | 0.00 | 0.00 | 88 | 1008.1 |
| 20260506062504 | 76 | 167 | 6.0 | 14.0 | 0.00 | 0.00 | 0.00 | 88 | 1008.1 |
| 20260506062004 | 76 | 164 | 6.0 | 14.0 | 0.00 | 0.00 | 0.00 | 88 | 1008.1 |
| 20260506061504 | 76 | 161 | 5.0 | 11.0 | 0.00 | 0.00 | 0.00 | 88 | 1008.2 |
| 20260506061004 | 76 | 168 | 5.0 | 9.0 | 0.00 | 0.00 | 0.00 | 89 | 1008.2 |
| 20260506060504 | 76 | 164 | 5.0 | 9.0 | 0.00 | 0.00 | 0.00 | 89 | 1008.2 |
| 20260506051024 | 77 | 154 | 5.0 | 10.0 | 0.00 | 0.00 | 0.00 | 87 | 1008.1 |
| 20260506050503 | 77 | 157 | 5.0 | 14.0 | 0.00 | 0.00 | 0.00 | 87 | 1008.0 |
| 20260506045004 | 77 | 156 | 4.0 | 9.0 | 0.00 | 0.00 | 0.00 | 87 | 1008.2 |
| 20260506044504 | 77 | 155 | 4.0 | 9.0 | 0.00 | 0.00 | 0.00 | 87 | 1008.3 |
| 20260506044004 | 76 | 150 | 4.0 | 7.0 | 0.00 | 0.00 | 0.00 | 87 | 1008.2 |
| 20260506043503 | 76 | 146 | 4.0 | 9.0 | 0.00 | 0.00 | 0.00 | 87 | 1008.3 |
| 20260506043004 | 77 | 151 | 5.0 | 9.0 | 0.00 | 0.00 | 0.00 | 87 | 1008.3 |
| 20260506042504 | 77 | 149 | 5.0 | 8.0 | 0.00 | 0.00 | 0.00 | 87 | 1008.1 |
| 20260506042003 | 77 | 143 | 5.0 | 9.0 | 0.00 | 0.00 | 0.00 | 87 | 1008.0 |
| 20260506041503 | 77 | 144 | 5.0 | 10.0 | 0.00 | 0.00 | 0.00 | 87 | 1008.1 |
| 20260506041004 | 77 | 146 | 4.0 | 10.0 | 0.00 | 0.00 | 0.00 | 87 | 1008.1 |
| 20260506040503 | 77 | 152 | 4.0 | 11.0 | 0.00 | 0.00 | 0.00 | 87 | 1008.1 |
| 20260506040004 | 77 | 147 | 5.0 | 11.0 | 0.00 | 0.00 | 0.00 | 86 | 1008.0 |
| 20260506035504 | 77 | 145 | 5.0 | 10.0 | 0.00 | 0.00 | 0.00 | 86 | 1007.9 |
| 20260506035004 | 77 | 147 | 6.0 | 10.0 | 0.00 | 0.00 | 0.00 | 86 | 1007.7 |
| 20260506034504 | 77 | 146 | 6.0 | 11.0 | 0.00 | 0.00 | 0.00 | 86 | 1007.8 |
| 20260506034003 | 77 | 146 | 6.0 | 11.0 | 0.00 | 0.00 | 0.00 | 86 | 1007.6 |
| 20260506033503 | 77 | 149 | 6.0 | 14.0 | 0.00 | 0.00 | 0.00 | 86 | 1007.5 |
| 20260506033025 | 77 | 150 | 6.0 | 14.0 | 0.00 | 0.00 | 0.00 | 86 | 1007.5 |
| 20260506032503 | 78 | 147 | 6.0 | 10.0 | 0.00 | 0.00 | 0.00 | 86 | 1007.4 |
| 20260506032004 | 78 | 148 | 6.0 | 12.0 | 0.00 | 0.00 | 0.00 | 85 | 1007.5 |
| 20260506031504 | 78 | 146 | 6.0 | 12.0 | 0.00 | 0.00 | 0.00 | 85 | 1007.4 |
| 20260506031003 | 78 | 145 | 5.0 | 12.0 | 0.00 | 0.00 | 0.00 | 85 | 1007.3 |
| 20260506030503 | 78 | 147 | 5.0 | 9.0 | 0.00 | 0.00 | 0.00 | 85 | 1007.3 |
| 20260506030005 | 78 | 149 | 5.0 | 9.0 | 0.00 | 0.00 | 0.00 | 84 | 1007.2 |
| 20260506025525 | 78 | 148 | 5.0 | 9.0 | 0.00 | 0.00 | 0.00 | 84 | 1007.2 |
| 20260506025004 | 78 | 146 | 5.0 | 9.0 | 0.00 | 0.00 | 0.00 | 84 | 1007.2 |
| 20260506024504 | 79 | 144 | 5.0 | 8.0 | 0.00 | 0.00 | 0.00 | 84 | 1007.1 |
| 20260506024003 | 79 | 146 | 4.0 | 7.0 | 0.00 | 0.00 | 0.00 | 83 | 1007.0 |
| 20260506023525 | 79 | 152 | 4.0 | 9.0 | 0.00 | 0.00 | 0.00 | 83 | 1007.1 |
| 20260506023004 | 79 | 151 | 5.0 | 11.0 | 0.00 | 0.00 | 0.00 | 83 | 1007.1 |
| 20260506022503 | 79 | 148 | 5.0 | 11.0 | 0.00 | 0.00 | 0.00 | 83 | 1006.9 |
| 20260506022004 | 79 | 144 | 4.0 | 11.0 | 0.00 | 0.00 | 0.00 | 83 | 1006.6 |
| 20260506021504 | 79 | 136 | 3.0 | 6.0 | 0.00 | 0.00 | 0.00 | 83 | 1006.6 |
| 20260506021004 | 79 | 137 | 3.0 | 8.0 | 0.00 | 0.00 | 0.00 | 83 | 1006.5 |
| 20260506020503 | 80 | 138 | 4.0 | 10.0 | 0.00 | 0.00 | 0.00 | 82 | 1006.4 |
| 20260506020004 | 80 | 137 | 4.0 | 10.0 | 0.00 | 0.00 | 0.00 | 82 | 1006.4 |
| 20260506015524 | 80 | 134 | 4.0 | 8.0 | 0.00 | 0.00 | 0.00 | 81 | 1006.5 |
| 20260506015003 | 80 | 134 | 4.0 | 9.0 | 0.00 | 0.00 | 0.00 | 81 | 1006.4 |
| 20260506014504 | 80 | 133 | 4.0 | 9.0 | 0.00 | 0.00 | 0.00 | 80 | 1006.4 |
| 20260506014003 | 81 | 139 | 4.0 | 9.0 | 0.00 | 0.00 | 0.00 | 80 | 1006.3 |
| 20260506013504 | 81 | 141 | 4.0 | 9.0 | 0.00 | 0.00 | 0.00 | 80 | 1006.3 |
| 20260506013003 | 81 | 129 | 3.0 | 6.0 | 0.00 | 0.00 | 0.00 | 80 | 1006.2 |
| 20260506012505 | 81 | 135 | 3.0 | 8.0 | 0.00 | 0.00 | 0.00 | 79 | 1006.1 |
| 20260506012026 | 81 | 140 | 4.0 | 10.0 | 0.00 | 0.00 | 0.00 | 79 | 1006.1 |
| 20260506011505 | 82 | 139 | 4.0 | 10.0 | 0.00 | 0.00 | 0.00 | 79 | 1006.0 |
| 20260506011026 | 82 | 132 | 3.0 | 7.0 | 0.00 | 0.00 | 0.00 | 79 | 1006.0 |
| 20260506010505 | 82 | 130 | 3.0 | 10.0 | 0.00 | 0.00 | 0.00 | 78 | 1005.9 |
| 20260506010005 | 82 | 128 | 3.0 | 10.0 | 0.00 | 0.00 | 0.00 | 78 | 1005.8 |
| 20260506005526 | 82 | 127 | 3.0 | 7.0 | 0.00 | 0.00 | 0.00 | 77 | 1005.8 |
| 20260506005005 | 83 | 129 | 3.0 | 7.0 | 0.00 | 0.00 | 0.00 | 77 | 1005.7 |
| 20260506004505 | 83 | 121 | 3.0 | 7.0 | 0.00 | 0.00 | 0.00 | 76 | 1005.7 |
| 20260506004005 | 83 | 114 | 2.0 | 7.0 | 0.00 | 0.00 | 0.00 | 75 | 1005.6 |
| 20260506003527 | 84 | 103 | 2.0 | 5.0 | 0.00 | 0.00 | 0.00 | 75 | 1005.6 |
| 20260506003005 | 84 | 118 | 2.0 | 5.0 | 0.00 | 0.00 | 0.00 | 74 | 1005.6 |
| 20260506002504 | 84 | 136 | 2.0 | 6.0 | 0.00 | 0.00 | 0.00 | 74 | 1005.5 |
| 20260506002004 | 84 | 144 | 3.0 | 7.0 | 0.00 | 0.00 | 0.00 | 73 | 1005.5 |
| 20260506001504 | 84 | 144 | 3.0 | 7.0 | 0.00 | 0.00 | 0.00 | 73 | 1005.4 |
| 20260506001005 | 84 | 140 | 3.0 | 8.0 | 0.00 | 0.00 | 0.00 | 72 | 1005.5 |
| 20260506000505 | 84 | 136 | 3.0 | 8.0 | 0.00 | 0.00 | 0.00 | 72 | 1005.4 |
| 20260506000004 | 85 | 134 | 3.0 | 7.0 | 0.00 | 0.00 | 0.00 | 71 | 1005.2 |
| 20260505235505 | 85 | 139 | 4.0 | 8.0 | 0.00 | 0.00 | 0.00 | 72 | 1005.2 |
| 20260505235025 | 85 | 141 | 4.0 | 8.0 | 0.00 | 0.00 | 0.00 | 72 | 1005.1 |
| 20260505234505 | 85 | 141 | 4.0 | 7.0 | 0.00 | 0.00 | 0.00 | 71 | 1005.0 |
| 20260505234026 | 85 | 142 | 4.0 | 7.0 | 0.00 | 0.00 | 0.00 | 71 | 1005.1 |
| 20260505233526 | 85 | 147 | 4.0 | 7.0 | 0.00 | 0.00 | 0.00 | 71 | 1005.1 |
| 20260505233005 | 85 | 153 | 4.0 | 7.0 | 0.00 | 0.00 | 0.00 | 71 | 1005.2 |
| 20260505232505 | 85 | 151 | 5.0 | 9.0 | 0.00 | 0.00 | 0.00 | 71 | 1005.1 |
| 20260505232004 | 86 | 142 | 5.0 | 9.0 | 0.00 | 0.00 | 0.00 | 70 | 1005.2 |
| 20260505231505 | 86 | 139 | 4.0 | 9.0 | 0.00 | 0.00 | 0.00 | 70 | 1005.2 |
| 20260505231005 | 86 | 159 | 5.0 | 9.0 | 0.00 | 0.00 | 0.00 | 69 | 1005.2 |
| 20260505230505 | 86 | 160 | 6.0 | 9.0 | 0.00 | 0.00 | 0.00 | 69 | 1005.2 |
| 20260505230026 | 86 | 150 | 5.0 | 9.0 | 0.00 | 0.00 | 0.00 | 69 | 1005.1 |
| 20260505225505 | 86 | 154 | 5.0 | 9.0 | 0.00 | 0.00 | 0.00 | 69 | 1005.1 |
| 20260505225005 | 86 | 155 | 5.0 | 11.0 | 0.00 | 0.00 | 0.00 | 72 | 1005.1 |
| 20260505224505 | 85 | 141 | 5.0 | 11.0 | 0.00 | 0.00 | 0.00 | 71 | 1005.2 |
| 20260505224026 | 85 | 136 | 5.0 | 10.0 | 0.00 | 0.00 | 0.00 | 71 | 1005.2 |
| 20260505223505 | 85 | 138 | 5.0 | 9.0 | 0.00 | 0.00 | 0.00 | 71 | 1005.3 |
| 20260505223005 | 86 | 138 | 4.0 | 10.0 | 0.00 | 0.00 | 0.00 | 71 | 1005.3 |
| 20260505222505 | 86 | 138 | 4.0 | 10.0 | 0.00 | 0.00 | 0.00 | 70 | 1005.4 |
| 20260505222005 | 86 | 145 | 4.0 | 9.0 | 0.00 | 0.00 | 0.00 | 70 | 1005.5 |
| 20260505221504 | 86 | 145 | 4.0 | 9.0 | 0.00 | 0.00 | 0.00 | 72 | 1005.4 |
| 20260505221005 | 85 | 143 | 4.0 | 9.0 | 0.00 | 0.00 | 0.00 | 71 | 1005.4 |
| 20260505220505 | 85 | 143 | 4.0 | 8.0 | 0.00 | 0.00 | 0.00 | 72 | 1005.5 |
| 20260505220005 | 86 | 159 | 5.0 | 9.0 | 0.00 | 0.00 | 0.00 | 71 | 1005.4 |
| 20260505215505 | 86 | 164 | 5.0 | 9.0 | 0.00 | 0.00 | 0.00 | 70 | 1005.4 |
| 20260505215004 | 86 | 166 | 6.0 | 12.0 | 0.00 | 0.00 | 0.00 | 68 | 1005.6 |
| 20260505214504 | 86 | 180 | 5.0 | 12.0 | 0.00 | 0.00 | 0.00 | 67 | 1005.6 |
| 20260505214005 | 86 | 192 | 5.0 | 9.0 | 0.00 | 0.00 | 0.00 | 69 | 1005.7 |
| 20260505213504 | 86 | 186 | 5.0 | 9.0 | 0.00 | 0.00 | 0.00 | 70 | 1005.8 |
| 20260505213005 | 86 | 176 | 4.0 | 8.0 | 0.00 | 0.00 | 0.00 | 70 | 1005.9 |
| 20260505212505 | 86 | 190 | 5.0 | 11.0 | 0.00 | 0.00 | 0.00 | 70 | 1005.9 |
| 20260505212004 | 86 | 190 | 5.0 | 11.0 | 0.00 | 0.00 | 0.00 | 70 | 1006.0 |
| 20260505211504 | 85 | 178 | 4.0 | 10.0 | 0.00 | 0.00 | 0.00 | 70 | 1006.1 |
| 20260505211004 | 85 | 162 | 4.0 | 10.0 | 0.00 | 0.00 | 0.00 | 70 | 1006.1 |
| 20260505210504 | 85 | 141 | 4.0 | 8.0 | 0.00 | 0.00 | 0.00 | 71 | 1006.1 |
| 20260505210005 | 85 | 155 | 4.0 | 9.0 | 0.00 | 0.00 | 0.00 | 72 | 1006.3 |
| 20260505205525 | 84 | 162 | 4.0 | 9.0 | 0.00 | 0.00 | 0.00 | 72 | 1006.2 |
| 20260505205004 | 84 | 173 | 4.0 | 9.0 | 0.00 | 0.00 | 0.00 | 72 | 1006.4 |
| 20260505204505 | 84 | 180 | 4.0 | 10.0 | 0.00 | 0.00 | 0.00 | 72 | 1006.6 |
| 20260505204025 | 84 | 175 | 5.0 | 10.0 | 0.00 | 0.00 | 0.00 | 71 | 1006.6 |
| 20260505203505 | 85 | 165 | 5.0 | 10.0 | 0.00 | 0.00 | 0.00 | 71 | 1006.7 |
| 20260505203004 | 85 | 165 | 5.0 | 9.0 | 0.00 | 0.00 | 0.00 | 73 | 1006.7 |
| 20260505202506 | 84 | 173 | 4.0 | 9.0 | 0.00 | 0.00 | 0.00 | 73 | 1006.7 |
| 20260505202006 | 84 | 178 | 5.0 | 10.0 | 0.00 | 0.00 | 0.00 | 73 | 1006.9 |
| 20260505201504 | 84 | 183 | 6.0 | 12.0 | 0.00 | 0.00 | 0.00 | 72 | 1007.0 |
| 20260505201005 | 84 | 183 | 6.0 | 12.0 | 0.00 | 0.00 | 0.00 | 72 | 1007.0 |
| 20260505200505 | 84 | 179 | 6.0 | 11.0 | 0.00 | 0.00 | 0.00 | 73 | 1007.0 |
| 20260505200005 | 83 | 180 | 6.0 | 11.0 | 0.00 | 0.00 | 0.00 | 74 | 1007.1 |
| 20260505195504 | 83 | 184 | 6.0 | 11.0 | 0.00 | 0.00 | 0.00 | 73 | 1007.1 |
| 20260505195005 | 83 | 174 | 5.0 | 11.0 | 0.00 | 0.00 | 0.00 | 74 | 1007.1 |
| 20260505194505 | 83 | 157 | 4.0 | 10.0 | 0.00 | 0.00 | 0.00 | 74 | 1007.2 |
| 20260505194026 | 83 | 173 | 5.0 | 10.0 | 0.00 | 0.00 | 0.00 | 74 | 1007.3 |
| 20260505193505 | 83 | 189 | 5.0 | 9.0 | 0.00 | 0.00 | 0.00 | 75 | 1007.4 |
| 20260505193005 | 83 | 187 | 5.0 | 9.0 | 0.00 | 0.00 | 0.00 | 73 | 1007.5 |
| 20260505192504 | 83 | 198 | 5.0 | 9.0 | 0.00 | 0.00 | 0.00 | 76 | 1007.6 |
| 20260505192026 | 82 | 210 | 4.0 | 9.0 | 0.00 | 0.00 | 0.00 | 75 | 1007.7 |
| 20260505191504 | 82 | 200 | 4.0 | 9.0 | 0.00 | 0.00 | 0.00 | 76 | 1008.0 |
| 20260505191004 | 82 | 183 | 5.0 | 9.0 | 0.00 | 0.00 | 0.00 | 76 | 1008.1 |
| 20260505190527 | 82 | 185 | 5.0 | 9.0 | 0.00 | 0.00 | 0.00 | 75 | 1008.0 |
| 20260505190025 | 82 | 196 | 5.0 | 10.0 | 0.00 | 0.00 | 0.00 | 75 | 1008.0 |
| 20260505185504 | 81 | 205 | 6.0 | 10.0 | 0.00 | 0.00 | 0.00 | 76 | 1008.2 |
| 20260505185004 | 81 | 203 | 6.0 | 11.0 | 0.00 | 0.00 | 0.00 | 77 | 1008.1 |
| 20260505184505 | 81 | 199 | 5.0 | 11.0 | 0.00 | 0.00 | 0.00 | 76 | 1008.3 |
| 20260505184004 | 80 | 201 | 5.0 | 9.0 | 0.00 | 0.00 | 0.00 | 78 | 1008.4 |
| 20260505183504 | 80 | 191 | 6.0 | 11.0 | 0.00 | 0.00 | 0.00 | 78 | 1008.4 |
| 20260505183025 | 80 | 184 | 6.0 | 11.0 | 0.00 | 0.00 | 0.00 | 77 | 1008.5 |
| 20260505182505 | 80 | 191 | 5.0 | 10.0 | 0.00 | 0.00 | 0.00 | 79 | 1008.4 |
| 20260505182005 | 80 | 193 | 5.0 | 10.0 | 0.00 | 0.00 | 0.00 | 80 | 1008.4 |
| 20260505181505 | 79 | 195 | 5.0 | 10.0 | 0.00 | 0.00 | 0.00 | 80 | 1008.5 |
| 20260505181004 | 79 | 183 | 5.0 | 10.0 | 0.00 | 0.00 | 0.00 | 82 | 1008.5 |
| 20260505180505 | 79 | 168 | 4.0 | 9.0 | 0.00 | 0.00 | 0.00 | 82 | 1008.5 |
| 20260505180004 | 78 | 178 | 4.0 | 9.0 | 0.00 | 0.00 | 0.00 | 82 | 1008.6 |
| 20260505175525 | 78 | 192 | 4.0 | 8.0 | 0.00 | 0.00 | 0.00 | 82 | 1008.6 |
| 20260505175005 | 78 | 191 | 4.0 | 8.0 | 0.00 | 0.00 | 0.00 | 81 | 1008.6 |
| 20260505174504 | 78 | 192 | 4.0 | 8.0 | 0.00 | 0.00 | 0.00 | 82 | 1008.7 |
| 20260505174005 | 78 | 203 | 5.0 | 9.0 | 0.00 | 0.00 | 0.00 | 82 | 1008.7 |
| 20260505173504 | 78 | 197 | 5.0 | 9.0 | 0.00 | 0.00 | 0.00 | 83 | 1008.9 |
| 20260505173005 | 78 | 188 | 4.0 | 8.0 | 0.00 | 0.00 | 0.00 | 82 | 1008.8 |
| 20260505172504 | 78 | 187 | 4.0 | 8.0 | 0.00 | 0.00 | 0.00 | 82 | 1008.8 |
| 20260505172005 | 77 | 193 | 5.0 | 9.0 | 0.00 | 0.00 | 0.00 | 83 | 1008.8 |
| 20260505171504 | 77 | 196 | 5.0 | 9.0 | 0.00 | 0.00 | 0.00 | 83 | 1008.8 |
| 20260505171004 | 77 | 197 | 5.0 | 12.0 | 0.00 | 0.00 | 0.00 | 83 | 1008.8 |
| 20260505170504 | 77 | 195 | 6.0 | 12.0 | 0.00 | 0.00 | 0.00 | 83 | 1008.9 |
| 20260505170004 | 77 | 199 | 5.0 | 9.0 | 0.00 | 0.00 | 0.00 | 84 | 1008.9 |
| 20260505165525 | 77 | 210 | 6.0 | 10.0 | 0.00 | 0.00 | 0.00 | 84 | 1009.0 |